EW7735 Weather Reports


Display with metric or nautical units.
time (UTC)temp
F
wind
direction
speed
MPH
gust
MPH
rain 1hr
in
rain 24hr
in
rain mn
in
humidity
%
barometer
mb
20260510124548 63 1 0.0 0.0 0.00 0.00 0.00 85 1015.4
20260510123024 63 1 0.0 0.0 0.00 0.00 0.00 84 1014.5
20260510121554 63 1 0.0 0.0 0.00 0.00 0.00 83 1014.3
20260510120010 62 1 0.0 0.0 0.00 0.01 0.00 83 1013.7
20260510114622 62 1 0.0 0.0 0.00 0.01 0.00 82 1013.2
20260510113112 62 1 0.0 0.0 0.00 0.01 0.00 81 1013.0
20260510111630 62 1 0.0 0.0 0.00 0.01 0.00 81 1012.8
20260510110104 63 1 0.0 0.0 0.00 0.01 0.00 79 1012.6
20260510104604 64 1 0.0 0.0 0.00 0.01 0.00 78 1012.3
20260510103100 64 1 0.0 0.0 0.00 0.01 0.00 77 1012.3
20260510101556 64 1 0.0 0.0 0.00 0.01 0.00 77 1012.3
20260510094547 64 1 0.0 1.0 0.00 0.01 0.00 76 1011.9
20260510093019 64 1 0.0 2.0 0.00 0.01 0.00 76 1012.0
20260510091541 65 1 0.0 0.0 0.00 0.01 0.00 75 1011.6
20260510090015 65 1 0.0 2.0 0.00 0.01 0.00 74 1011.3
20260510084550 65 181 0.0 0.0 0.00 0.01 0.00 73 1010.8
20260510083104 66 182 1.0 3.0 0.00 0.01 0.00 72 1010.8
20260510081555 67 182 0.0 3.0 0.00 0.01 0.00 70 1010.1
20260510080052 68 181 0.0 2.0 0.00 0.01 0.00 68 1010.2
20260510074631 69 182 0.0 3.0 0.00 0.01 0.00 67 1009.9
20260510073111 69 211 7.0 19.0 0.00 0.01 0.00 65 1008.4
20260510071505 69 168 5.0 11.0 0.00 0.01 0.00 61 1010.0
20260510070023 70 197 5.0 15.0 0.00 0.01 0.00 60 1010.9
20260510064621 70 172 6.0 16.0 0.00 0.01 0.00 62 1010.4
20260510063109 67 129 2.0 4.0 0.00 0.01 0.00 73 1011.3
20260510061629 68 339 0.0 3.0 0.00 0.01 0.00 71 1012.2
20260510060034 67 341 0.0 2.0 0.00 0.01 0.00 71 1012.4
20260510054625 68 340 0.0 2.0 0.00 0.01 0.00 70 1012.4
20260510053111 68 340 0.0 0.0 0.00 0.01 0.00 68 1012.6
20260510051623 69 340 0.0 4.0 0.00 0.01 0.00 67 1012.7
20260510050053 69 343 1.0 5.0 0.00 0.01 0.00 67 1012.8
20260510044556 70 341 2.0 9.0 0.00 0.01 0.01 67 1012.4
20260510043029 69 151 0.0 0.0 0.00 0.01 0.01 67 1011.7
20260510041549 69 151 0.0 0.0 0.00 0.01 0.01 66 1011.1
20260510040024 69 151 0.0 0.0 0.00 0.01 0.01 66 1010.8
20260510034634 69 151 0.0 0.0 0.00 0.01 0.01 65 1010.7
20260510033114 69 151 0.0 0.0 0.00 0.01 0.01 64 1010.6
20260510031628 70 151 0.0 0.0 0.00 0.01 0.01 61 1010.8
20260510030115 70 151 0.0 0.0 0.00 0.01 0.01 61 1010.8
20260510024506 71 151 0.0 0.0 0.00 0.01 0.01 58 1010.5
20260510023100 71 151 0.0 0.0 0.00 0.01 0.01 57 1010.0
20260510021558 72 151 0.0 0.0 0.00 0.01 0.01 54 1009.2
20260510020053 73 1 0.0 0.0 0.00 0.01 0.01 51 1009.0
20260510014543 75 1 0.0 0.0 0.00 0.02 0.01 47 1008.7
20260510013016 76 151 0.0 0.0 0.00 0.02 0.01 45 1008.3
20260510011552 78 151 0.0 3.0 0.00 0.02 0.01 42 1008.2
20260510010111 78 139 2.0 7.0 0.00 0.02 0.01 43 1008.0
20260510004551 79 168 3.0 8.0 0.00 0.15 0.01 44 1007.9
20260510003027 79 133 2.0 4.0 0.00 0.15 0.01 43 1007.8
20260510001510 80 151 3.0 7.0 0.00 0.15 0.01 39 1007.8
20260510000015 80 116 2.0 8.0 0.00 0.55 0.01 36 1007.9
20260509234558 81 120 2.0 7.0 0.00 0.55 0.01 34 1007.9
20260509233017 81 148 5.0 10.0 0.00 0.55 0.01 32 1008.1
20260509231505 82 106 4.0 11.0 0.00 0.55 0.01 33 1008.1
20260509230139 82 109 1.0 10.0 0.00 0.55 0.01 34 1008.1
20260509224558 82 164 5.0 11.0 0.00 0.55 0.01 33 1008.3
20260509223102 83 129 2.0 9.0 0.00 0.55 0.01 35 1008.2
20260509221604 83 87 5.0 11.0 0.00 0.55 0.01 32 1008.3
20260509220024 83 145 3.0 8.0 0.00 0.55 0.01 32 1008.4
20260509214633 83 150 1.0 8.0 0.00 0.55 0.01 33 1008.5
20260509213112 82 125 4.0 13.0 0.00 0.55 0.01 32 1008.6
20260509211549 83 113 2.0 8.0 0.00 0.55 0.01 31 1008.8
20260509210028 82 170 5.0 9.0 0.00 0.55 0.01 31 1009.0
20260509204518 83 112 2.0 8.0 0.00 0.55 0.01 30 1009.3
20260509203019 83 129 3.0 9.0 0.00 0.55 0.01 31 1009.3
20260509201635 83 143 3.0 7.0 0.00 0.55 0.01 36 1009.3
20260509200108 82 160 3.0 8.0 0.00 0.55 0.01 34 1009.6
20260509194519 82 155 1.0 9.0 0.00 0.55 0.01 31 1009.8
20260509193127 82 93 4.0 9.0 0.00 0.55 0.01 33 1009.9
20260509191607 82 128 2.0 11.0 0.00 0.55 0.01 31 1009.9
20260509190039 82 100 2.0 8.0 0.00 0.55 0.01 34 1009.9
20260509184525 81 141 2.0 7.0 0.00 0.55 0.01 34 1010.1
20260509183017 80 144 0.0 7.0 0.00 0.55 0.01 38 1010.2
20260509181541 80 232 5.0 8.0 0.00 0.55 0.01 43 1010.4
20260509180021 80 228 1.0 6.0 0.00 0.55 0.01 49 1010.5
20260509174543 78 149 2.0 8.0 0.00 0.55 0.01 47 1010.7
20260509173014 78 138 4.0 8.0 0.00 0.55 0.01 51 1010.9
20260509171608 77 220 2.0 6.0 0.00 0.55 0.01 60 1011.0
20260509170053 78 147 2.0 4.0 0.00 0.55 0.01 61 1011.0
20260509164628 76 131 1.0 4.0 0.00 0.55 0.01 63 1011.1
20260509163106 75 158 4.0 8.0 0.00 0.55 0.01 63 1011.3
20260509161633 74 143 2.0 6.0 0.00 0.55 0.01 65 1011.2
20260509160114 73 112 2.0 6.0 0.00 0.55 0.01 71 1010.9
20260509154626 73 145 1.0 7.0 0.00 0.55 0.01 72 1010.9
20260509153104 72 183 1.0 3.0 0.00 0.55 0.01 75 1010.9
20260509151544 71 183 0.0 3.0 0.00 0.55 0.01 82 1011.0
20260509150029 68 183 0.0 5.0 0.00 0.55 0.01 87 1011.0
20260509144548 66 183 1.0 4.0 0.00 0.55 0.01 91 1011.1
20260509143025 65 183 1.0 4.0 0.00 0.55 0.01 95 1011.0
20260509141551 64 183 0.0 2.0 0.00 0.55 0.01 97 1011.0
20260509140047 63 183 1.0 3.0 0.00 0.55 0.01 97 1010.9
20260509134510 63 183 0.0 2.0 0.00 0.55 0.01 97 1010.8
20260509133107 62 183 0.0 0.0 0.00 0.55 0.01 97 1010.7
20260509131637 60 183 0.0 1.0 0.00 0.55 0.01 98 1010.3